Flag for U.S.A. Weather past 2 weeks in Portland, Maine, U.S.A.

Now
27 °F

Passing clouds.


Feels Like: 20 °F
Forecast: 10 / 29 °F
Wind: 6 mph from South

Location: Portland - Portland International Jetport

Current Time: Jan 29, 2015 at 5:26:03 PM

Latest Report: Jan 29, 2015 at 3:51 PM


Visibility: 10 mi

Pressure: 30.19 "Hg

Humidity: 41%

Dew point: 6 °F

Location of PortlandLocation

Historic Weather in Portland — Graph

°F

Portland temperature yesterday

Maximum temperature yesterday: 26 °F (at 3:51 PM)
Minimum temperature yesterday: 8 °F (at 11:51 PM)
Average temperature yesterday: 19 °F

Past Weeks' High & Low Weather Summary

 TemperatureHumidityPressure
High49 °F (Jan 18, 9:51 PM)96% (Jan 16, 12:51 AM)30.36 "Hg (Jan 16, 12:51 AM)
Low-1 °F (Jan 17, 5:51 AM)24% (Jan 17, 3:51 PM)29.16 "Hg (Jan 24, 8:51 PM)
Average24 °F62%29.92 "Hg
* Reported Jan 14 3:51 PM — Jan 29 3:51 PM, Portland, Weather by CustomWeather, © 2014

Note: Actual official high and low records may vary slightly from our data, if they occured in-between our weather recording intervals... More about our weather records

Advertising

Portland weather history for previous 24 hours

 ConditionsComfort  
Time TempWeatherWind HumidityBarometerVisibility
3:51 PM
Jan 29
27 °FPassing clouds.6 mph41%30.19 "Hg10 mi
2:51 PM28 °FPassing clouds.7 mph43%30.21 "Hg10 mi
1:51 PM30 °FPassing clouds.No wind34%30.22 "Hg10 mi
12:51 PM27 °FScattered clouds.No wind37%30.24 "Hg10 mi
11:51 AM24 °FScattered clouds.No wind36%30.29 "Hg10 mi
10:51 AM22 °FScattered clouds.No wind50%30.32 "Hg10 mi
9:51 AM16 °FPassing clouds.3 mph59%30.33 "Hg10 mi
8:51 AM9 °FPassing clouds.No wind70%30.32 "Hg10 mi
7:51 AM-1 °FSunny.6 mph82%30.31 "Hg10 mi
6:51 AM-1 °FClear.5 mph82%30.29 "Hg10 mi
5:51 AM1 °FClear.3 mph87%30.29 "Hg10 mi
4:51 AM6 °FClear.6 mph73%30.29 "Hg10 mi
3:51 AM1 °FClear.3 mph79%30.26 "Hg10 mi
2:51 AM4 °FClear.5 mph73%30.27 "Hg10 mi
1:51 AM9 °FClear.5 mph64%30.26 "Hg10 mi
12:51 AM8 °FClear.3 mph69%30.23 "Hg10 mi
11:51 PM
Jan 28
8 °FClear.3 mph69%30.21 "Hg10 mi
10:51 PM15 °FClear.5 mph49%30.19 "Hg10 mi
9:51 PM19 °FClear.9 mph41%30.17 "Hg10 mi
8:51 PM18 °FClear.6 mph47%30.15 "Hg10 mi
7:51 PM21 °FClear.6 mph45%30.13 "Hg10 mi
6:51 PM22 °FClear.8 mph52%30.10 "Hg10 mi
5:51 PM24 °FClear.12 mph52%30.06 "Hg10 mi
Weather by CustomWeather, © 2014

See weather overviewHow to use our weather pages